There are multiple Weather-warnings   Click here for more information


Meteo18 Weather Cam more information Meteo18 Weather Cam


Thunder radar more information blitzortung!


warning for Snow/Ice more information rain snow radar


Visit our other weather sites:

Template documentation
and downloads

And another site



Weather Underground History page Text

Daily Summary for February 24, 2017 Units:  Metric    English   Both
« Previous Day
Next Day »
Daily Weekly Monthly Yearly Custom
  High: Low: Average:
Temperature: -17.8 °C -16.4 °C -14.6 °C
Dew Point: -17.8 °C -17.8 °C -16.6 °C
Humidity: Humidity % 62 % 78 %
Wind Speed: 0 km/h 0 km/h 8.7 km/h
Wind Gust: 0 km/h - -
Wind:- - WNW
Pressure: 0 hPa 34293.4 hPa -
Precipitation: 0 mm    
Historical Graphs
 
 
Tabular Data for February 24, 2017
Time Temperature Dew Point Pressure Wind Wind Speed Wind Gust Humidity Rainfall Rate (Hourly)
-17.8 °C -17.8 °C 0 hPa Calm     Humidity % 0 mm
00:02 -13.7 °C -15.4 °C 34293.4 hPa NW 12.9 km/h 28.5 km/h 80 % 0 mm
00:07 -13.7 °C -15.4 °C 34293.4 hPa West 20.8 km/h 20.8 km/h 81 % 0 mm
00:17 -13.7 °C -15.5 °C 34303.6 hPa WNW 15.6 km/h 28.5 km/h 80 % 0 mm
00:22 -13.7 °C -15.5 °C 34303.6 hPa West 10.3 km/h 36.2 km/h 80 % 0 mm
00:27 -13.8 °C -15.5 °C 34303.6 hPa WSW 5.1 km/h 36.2 km/h 81 % 0 mm
00:32 -13.8 °C -15.5 °C 34303.6 hPa WNW 25.9 km/h 33.6 km/h 81 % 0 mm
00:37 -13.9 °C -15.6 °C 34303.6 hPa West 7.7 km/h 33.6 km/h 81 % 0 mm
00:42 -14 °C -15.7 °C 34313.7 hPa Calm   33.6 km/h 81 % 0 mm
00:47 -14.1 °C -15.7 °C 34313.7 hPa WNW 2.6 km/h 33.6 km/h 82 % 0 mm
00:52 -14.1 °C -15.7 °C 34313.7 hPa West 12.9 km/h 33.6 km/h 82 % 0 mm
00:57 -14.1 °C -15.8 °C 34313.7 hPa WNW 7.7 km/h 23.3 km/h 81 % 0 mm
01:02 -14.1 °C -15.9 °C 34327.3 hPa NW 7.7 km/h 23.3 km/h 80 % 0 mm
01:07 -14.1 °C -15.9 °C 34327.3 hPa WNW 18.2 km/h 33.6 km/h 80 % 0 mm
01:17 -14.2 °C -15.9 °C 34327.3 hPa WNW 15.6 km/h 31.1 km/h 81 % 0 mm
01:22 -14.2 °C -15.9 °C 34337.4 hPa WSW 10.3 km/h 31.1 km/h 81 % 0 mm
01:32 -14.3 °C -15.9 °C 34327.3 hPa NW 7.7 km/h 28.5 km/h 81 % 0 mm
01:37 -14.3 °C -15.9 °C 34327.3 hPa West 20.8 km/h 36.2 km/h 81 % 0 mm
01:42 -14.3 °C -15.9 °C 34327.3 hPa West 23.3 km/h 36.2 km/h 81 % 0 mm
01:47 -14.3 °C -16 °C 34337.4 hPa WNW 15.6 km/h 36.2 km/h 81 % 0 mm
01:52 -14.3 °C -16 °C 34337.4 hPa WNW 7.7 km/h 36.2 km/h 81 % 0 mm
02:02 -14.3 °C -16 °C 34337.4 hPa West 12.9 km/h 28.5 km/h 81 % 0 mm
02:07 -14.4 °C -16.1 °C 34337.4 hPa North 15.6 km/h 28.5 km/h 81 % 0 mm
02:12 -14.4 °C -16.1 °C 34337.4 hPa WNW 2.6 km/h 28.5 km/h 81 % 0 mm
02:17 -14.4 °C -16.1 °C 34337.4 hPa WNW 15.6 km/h 28.5 km/h 81 % 0 mm
02:22 -14.4 °C -16.1 °C 34347.6 hPa WNW 7.7 km/h 28.5 km/h 81 % 0 mm
02:32 -14.5 °C -16.2 °C 34347.6 hPa West 15.6 km/h 23.3 km/h 81 % 0 mm
02:42 -14.5 °C -16.2 °C 34347.6 hPa NW 18.2 km/h 28.5 km/h 81 % 0 mm
02:47 -14.6 °C -16.1 °C 34347.6 hPa West 15.6 km/h 33.6 km/h 82 % 0 mm
02:52 -14.6 °C -16.1 °C 34347.6 hPa WSW 2.6 km/h 33.6 km/h 82 % 0 mm
03:02 -14.6 °C -16.1 °C 34347.6 hPa WNW 10.3 km/h 33.6 km/h 83 % 0 mm
03:07 -14.7 °C -16.2 °C 34347.6 hPa NW 7.7 km/h 33.6 km/h 83 % 0 mm
03:12 -14.7 °C -16.1 °C 34347.6 hPa NW 7.7 km/h 33.6 km/h 84 % 0 mm
03:17 -14.8 °C -16.2 °C 34361.1 hPa WNW 5.1 km/h 28.5 km/h 84 % 0 mm
03:22 -14.8 °C -16.2 °C 34347.6 hPa NW 5.1 km/h 28.5 km/h 84 % 0 mm
03:27 -14.8 °C -16.2 °C 34361.1 hPa WNW 7.7 km/h 25.9 km/h 84 % 0 mm
03:32 -14.8 °C -16.1 °C 34361.1 hPa Calm   25.9 km/h 85 % 0 mm
03:42 -14.8 °C -16.1 °C 34361.1 hPa West 10.3 km/h 25.9 km/h 85 % 0 mm
03:47 -14.9 °C -16.2 °C 34361.1 hPa WNW 10.3 km/h 18.2 km/h 85 % 0 mm
03:52 -14.9 °C -16.1 °C 34361.1 hPa NW 5.1 km/h 18.2 km/h 86 % 0 mm
04:02 -14.9 °C -16.1 °C 34361.1 hPa West 5.1 km/h 18.2 km/h 86 % 0 mm
04:07 -14.9 °C -16.1 °C 34361.1 hPa NW 2.6 km/h 15.6 km/h 86 % 0 mm
04:12 -14.9 °C -16.1 °C 34361.1 hPa Calm   15.6 km/h 86 % 0 mm
04:17 -14.9 °C -16.1 °C 34361.1 hPa WNW 5.1 km/h 15.6 km/h 86 % 0 mm
04:22 -14.9 °C -16.1 °C 34361.1 hPa NNW 2.6 km/h 15.6 km/h 86 % 0 mm
04:27 -14.9 °C -16.1 °C 34361.1 hPa NW 10.3 km/h 20.8 km/h 86 % 0 mm
04:32 -14.9 °C -16.1 °C 34361.1 hPa WNW 5.1 km/h 20.8 km/h 86 % 0 mm
04:42 -14.9 °C -16.1 °C 34361.1 hPa West 7.7 km/h 18.2 km/h 87 % 0 mm
04:47 -14.9 °C -16.1 °C 34361.1 hPa West 18.2 km/h 20.8 km/h 87 % 0 mm
04:52 -15 °C -16.1 °C 34361.1 hPa WNW 10.3 km/h 20.8 km/h 87 % 0 mm
04:57 -15.1 °C -16.2 °C 34371.3 hPa WNW 10.3 km/h 20.8 km/h 87 % 0 mm
05:02 -15.1 °C -16.2 °C 34371.3 hPa WNW 2.6 km/h 20.8 km/h 87 % 0 mm
05:07 -15.1 °C -16.2 °C 34371.3 hPa West 5.1 km/h 20.8 km/h 87 % 0 mm
05:12 -15.1 °C -16.2 °C 34384.8 hPa West 5.1 km/h 20.8 km/h 87 % 0 mm
05:17 -15.2 °C -16.3 °C 34384.8 hPa WNW 5.1 km/h 20.8 km/h 87 % 0 mm
05:22 -15.2 °C -16.3 °C 34384.8 hPa WNW 5.1 km/h 20.8 km/h 87 % 0 mm
05:32 -15.3 °C -16.3 °C 34384.8 hPa WNW 5.1 km/h 12.9 km/h 88 % 0 mm
05:37 -15.3 °C -16.3 °C 34384.8 hPa West 2.6 km/h 12.9 km/h 88 % 0 mm
05:42 -15.4 °C -16.4 °C 34384.8 hPa West 10.3 km/h 12.9 km/h 88 % 0 mm
05:47 -15.4 °C -16.4 °C 34395 hPa NW 2.6 km/h 18.2 km/h 88 % 0 mm
05:52 -15.4 °C -16.4 °C 34395 hPa WNW 12.9 km/h 18.2 km/h 89 % 0 mm
05:57 -15.4 °C -16.4 °C 34395 hPa WNW 10.3 km/h 18.2 km/h 89 % 0 mm
06:02 -15.4 °C -16.4 °C 34395 hPa West 2.6 km/h 18.2 km/h 89 % 0 mm
06:12 -15.6 °C -16.4 °C 34395 hPa West 5.1 km/h 23.3 km/h 89 % 0 mm
06:17 -15.6 °C -16.5 °C 34395 hPa West 2.6 km/h 23.3 km/h 89 % 0 mm
06:22 -15.6 °C -16.5 °C 34395 hPa WNW 10.3 km/h 23.3 km/h 89 % 0 mm
06:27 -15.6 °C -16.5 °C 34395 hPa NW 5.1 km/h 12.9 km/h 89 % 0 mm
06:32 -15.6 °C -16.5 °C 34395 hPa WNW 5.1 km/h 12.9 km/h 89 % 0 mm
06:37 -15.7 °C -16.6 °C 34395 hPa West 2.6 km/h 12.9 km/h 89 % 0 mm
06:47 -15.8 °C -16.6 °C 34395 hPa WNW 7.7 km/h 18.2 km/h 90 % 0 mm
06:52 -15.8 °C -16.6 °C 34395 hPa WNW 2.6 km/h 18.2 km/h 90 % 0 mm
06:57 -15.8 °C -16.6 °C 34395 hPa WNW 5.1 km/h 18.2 km/h 90 % 0 mm
07:02 -15.8 °C -16.7 °C 34405.1 hPa WNW 7.7 km/h 18.2 km/h 90 % 0 mm
07:12 -15.9 °C -16.6 °C 34405.1 hPa NW 5.1 km/h 18.2 km/h 91 % 0 mm
07:17 -15.9 °C -16.6 °C 34405.1 hPa WNW 2.6 km/h 12.9 km/h 91 % 0 mm
07:22 -15.9 °C -16.6 °C 34405.1 hPa WNW 2.6 km/h 12.9 km/h 91 % 0 mm
07:32 -15.9 °C -16.7 °C 34405.1 hPa WNW 10.3 km/h 15.6 km/h 91 % 0 mm
07:37 -15.9 °C -16.7 °C 34405.1 hPa NW 5.1 km/h 15.6 km/h 91 % 0 mm
07:42 -15.9 °C -16.6 °C 34418.7 hPa NW 10.3 km/h 15.6 km/h 92 % 0 mm
07:47 -16 °C -16.7 °C 34418.7 hPa WNW 10.3 km/h 15.6 km/h 92 % 0 mm
07:52 -16 °C -16.7 °C 34418.7 hPa NW 2.6 km/h 15.6 km/h 92 % 0 mm
08:02 -16 °C -16.7 °C 34418.7 hPa NW 5.1 km/h 15.6 km/h 92 % 0 mm
08:12 -15.9 °C -16.6 °C 34428.8 hPa WNW 7.7 km/h 15.6 km/h 92 % 0 mm
08:17 -15.9 °C -16.7 °C 34428.8 hPa NNW 5.1 km/h 18.2 km/h 91 % 0 mm
08:22 -15.9 °C -16.6 °C 34428.8 hPa NW 2.6 km/h 18.2 km/h 91 % 0 mm
08:32 -15.7 °C -16.4 °C 34442.4 hPa Calm   18.2 km/h 91 % 0 mm
08:42 -15.6 °C -16.4 °C 34442.4 hPa West 5.1 km/h 20.8 km/h 90 % 0 mm
08:52 -15.4 °C -16.4 °C 34442.4 hPa NNW 5.1 km/h 23.3 km/h 89 % 0 mm
08:57 -15.4 °C -16.3 °C 34442.4 hPa NW 5.1 km/h 25.9 km/h 89 % 0 mm
09:02 -15.3 °C -16.3 °C 34442.4 hPa WNW 15.6 km/h 25.9 km/h 89 % 0 mm
09:12 -15.2 °C -16.2 °C 34442.4 hPa WNW 18.2 km/h 23.3 km/h 88 % 0 mm
09:17 -15.1 °C -16.1 °C 34452.6 hPa West 5.1 km/h 31.1 km/h 88 % 0 mm
09:22 -15.1 °C -16.2 °C 34452.6 hPa NW 10.3 km/h 31.1 km/h 87 % 0 mm
09:32 -14.9 °C -16 °C 34452.6 hPa NW 7.7 km/h 31.1 km/h 87 % 0 mm
09:37 -14.8 °C -16.1 °C 34452.6 hPa WNW 20.8 km/h 23.3 km/h 86 % 0 mm
09:42 -14.8 °C -16 °C 34452.6 hPa West 5.1 km/h 23.3 km/h 86 % 0 mm
09:52 -14.7 °C -15.9 °C 34462.7 hPa NNW 15.6 km/h 25.9 km/h 85 % 0 mm
09:57 -14.7 °C -15.9 °C 34462.7 hPa WSW 18.2 km/h 25.9 km/h 85 % 0 mm
10:02 -14.6 °C -16 °C 34462.7 hPa WNW 7.7 km/h 25.9 km/h 84 % 0 mm
10:07 -14.5 °C -15.9 °C 34462.7 hPa Calm   23.3 km/h 84 % 0 mm
10:12 -14.4 °C -15.9 °C 34462.7 hPa WNW 12.9 km/h 23.3 km/h 83 % 0 mm
10:17 -14.3 °C -15.8 °C 34462.7 hPa NW 5.1 km/h 25.9 km/h 83 % 0 mm
10:22 -14.3 °C -15.8 °C 34462.7 hPa NW 15.6 km/h 25.9 km/h 83 % 0 mm
10:32 -14.2 °C -16 °C 34462.7 hPa WNW 23.3 km/h 23.3 km/h 80 % 0 mm
10:42 -14.1 °C -15.9 °C 34462.7 hPa WNW 10.3 km/h 36.2 km/h 80 % 0 mm
10:52 -14.1 °C -15.8 °C 34476.3 hPa WNW 2.6 km/h 33.6 km/h 80 % 0 mm
10:57 -14 °C -15.9 °C 34476.3 hPa WNW 5.1 km/h 41.4 km/h 79 % 0 mm
11:02 -14 °C -15.8 °C 34476.3 hPa North 15.6 km/h 41.4 km/h 80 % 0 mm
11:12 -14.1 °C -16.1 °C 34462.7 hPa NW 12.9 km/h 31.1 km/h 78 % 0 mm
11:22 -14.1 °C -16.1 °C 34476.3 hPa WNW 10.3 km/h 28.5 km/h 78 % 0 mm
11:32 -13.8 °C -15.9 °C 34476.3 hPa NW 5.1 km/h 33.6 km/h 77 % 0 mm
11:37 -13.8 °C -16 °C 34486.4 hPa WNW 15.6 km/h 33.6 km/h 76 % 0 mm
11:42 -13.9 °C -16.1 °C 34486.4 hPa NNW 15.6 km/h 33.6 km/h 76 % 0 mm
11:52 -13.9 °C -16.1 °C 34486.4 hPa NW 18.2 km/h 25.9 km/h 76 % 0 mm
11:57 -13.8 °C -16 °C 34486.4 hPa West 7.7 km/h 31.1 km/h 76 % 0 mm
12:02 -13.8 °C -16 °C 34486.4 hPa West 7.7 km/h 31.1 km/h 76 % 0 mm
12:12 -13.4 °C -15.3 °C 34476.3 hPa WNW 15.6 km/h 33.6 km/h 79 % 0 mm
12:17 -13.5 °C -15.8 °C 34476.3 hPa NW 10.3 km/h 31.1 km/h 75 % 0 mm
12:22 -13.6 °C -16.2 °C 34476.3 hPa WNW 18.2 km/h 31.1 km/h 72 % 0 mm
12:27 -13.4 °C -15.7 °C 34476.3 hPa NNW 7.7 km/h 31.1 km/h 76 % 0 mm
12:32 -13.6 °C -16.2 °C 34476.3 hPa NW 23.3 km/h 31.1 km/h 72 % 0 mm
12:42 -14 °C -16.4 °C 34476.3 hPa WNW 10.3 km/h 36.2 km/h 74 % 0 mm
12:47 -13.9 °C -16.4 °C 34476.3 hPa NW 7.7 km/h 36.2 km/h 73 % 0 mm
12:52 -13.8 °C -16.4 °C 34476.3 hPa West 18.2 km/h 33.6 km/h 72 % 0 mm
12:57 -13.5 °C -16.1 °C 34476.3 hPa WNW 15.6 km/h 33.6 km/h 72 % 0 mm
13:02 -13.4 °C -16.2 °C 34476.3 hPa NNW 12.9 km/h 33.6 km/h 70 % 0 mm
13:12 -13.7 °C -16.9 °C 34486.4 hPa NW 15.6 km/h 33.6 km/h 66 % 0 mm
13:17 -13.8 °C -16.9 °C 34476.3 hPa NNW 12.9 km/h 31.1 km/h 68 % 0 mm
13:22 -13.8 °C -16.5 °C 34476.3 hPa NW 7.7 km/h 31.1 km/h 71 % 0 mm
13:27 -13.6 °C -16.3 °C 34476.3 hPa WNW 7.7 km/h 31.1 km/h 71 % 0 mm
13:32 -13.4 °C -16.5 °C 34476.3 hPa WNW 12.9 km/h 31.1 km/h 68 % 0 mm
13:37 -13.4 °C -16.4 °C 34476.3 hPa NW 7.7 km/h 23.3 km/h 69 % 0 mm
13:42 -13.6 °C -16.6 °C 34476.3 hPa North 15.6 km/h 23.3 km/h 68 % 0 mm
13:47 -13.6 °C -17 °C 34476.3 hPa West 20.8 km/h 25.9 km/h 65 % 0 mm
13:52 -13.6 °C -16.9 °C 34476.3 hPa NW 20.8 km/h 25.9 km/h 66 % 0 mm
13:57 -13.7 °C -16.9 °C 34476.3 hPa NW 12.9 km/h 33.6 km/h 66 % 0 mm
14:02 -13.5 °C -16.4 °C 34476.3 hPa WSW 20.8 km/h 33.6 km/h 69 % 0 mm
14:12 -13.3 °C -16.8 °C 34462.7 hPa NW 25.9 km/h 28.5 km/h 64 % 0 mm
14:17 -13.4 °C -17.1 °C 34476.3 hPa NW 12.9 km/h 38.8 km/h 63 % 0 mm
14:22 -13.5 °C -16.9 °C 34476.3 hPa NW 18.2 km/h 38.8 km/h 65 % 0 mm
14:27 -13.5 °C -16.7 °C 34476.3 hPa NNW 12.9 km/h 33.6 km/h 67 % 0 mm
14:32 -13.6 °C -16.6 °C 34476.3 hPa WNW 10.3 km/h 33.6 km/h 68 % 0 mm
14:42 -13.6 °C -16.8 °C 34476.3 hPa NW 5.1 km/h 31.1 km/h 67 % 0 mm
14:52 -13.6 °C -16.7 °C 34476.3 hPa NW 5.1 km/h 31.1 km/h 67 % 0 mm
14:57 -13.5 °C -16.8 °C 34476.3 hPa NW 12.9 km/h 33.6 km/h 66 % 0 mm
15:02 -13.6 °C -17 °C 34476.3 hPa NW 10.3 km/h 33.6 km/h 65 % 0 mm
15:07 -13.4 °C -16.9 °C 34476.3 hPa North 23.3 km/h 31.1 km/h 65 % 0 mm
15:12 -13.3 °C -16.9 °C 34486.4 hPa North 18.2 km/h 31.1 km/h 64 % 0 mm
15:17 -13.4 °C -16.9 °C 34486.4 hPa WNW 12.9 km/h 36.2 km/h 64 % 0 mm
15:22 -13.3 °C -17.1 °C 34486.4 hPa WNW 18.2 km/h 36.2 km/h 62 % 0 mm
15:27 -13.2 °C -16.9 °C 34486.4 hPa WNW 25.9 km/h 38.8 km/h 63 % 0 mm
15:32 -13.2 °C -16.6 °C 34486.4 hPa NW 15.6 km/h 38.8 km/h 65 % 0 mm
15:42 -13.4 °C -17 °C 34486.4 hPa NNW 23.3 km/h 38.8 km/h 64 % 0 mm
15:52 -13.6 °C -17 °C 34496.6 hPa NW 12.9 km/h 44.1 km/h 65 % 0 mm
15:57 -13.6 °C -16.8 °C 34496.6 hPa North 7.7 km/h 36.2 km/h 66 % 0 mm
16:02 -13.6 °C -16.8 °C 34496.6 hPa NNW 10.3 km/h 36.2 km/h 66 % 0 mm
16:07 -13.4 °C -16.8 °C 34496.6 hPa WNW 12.9 km/h 31.1 km/h 66 % 0 mm
16:12 -13.4 °C -16.6 °C 34496.6 hPa WNW 10.3 km/h 31.1 km/h 67 % 0 mm
16:17 -13.4 °C -16.8 °C 34496.6 hPa NNW 2.6 km/h 23.3 km/h 65 % 0 mm
16:22 -13.5 °C -16.9 °C 34496.6 hPa WNW 7.7 km/h 23.3 km/h 65 % 0 mm
16:27 -13.6 °C -16.7 °C 34496.6 hPa NNW 15.6 km/h 25.9 km/h 67 % 0 mm
16:32 -13.6 °C -17.3 °C 34496.6 hPa NW 18.2 km/h 25.9 km/h 63 % 0 mm
16:42 -13.7 °C -17.1 °C 34510.1 hPa NNW 10.3 km/h 25.9 km/h 65 % 0 mm
16:52 -13.6 °C -17.1 °C 34510.1 hPa WNW 10.3 km/h 20.8 km/h 64 % 0 mm
16:57 -13.5 °C -16.8 °C 34510.1 hPa NW 5.1 km/h 25.9 km/h 66 % 0 mm
17:02 -13.6 °C -16.8 °C 34510.1 hPa WNW 10.3 km/h 25.9 km/h 66 % 0 mm
17:12 -13.6 °C -17.1 °C 34510.1 hPa NW 15.6 km/h 18.2 km/h 65 % 0 mm
17:17 -13.6 °C -17.2 °C 34510.1 hPa NW 5.1 km/h 33.6 km/h 63 % 0 mm
17:22 -13.6 °C -17.1 °C 34510.1 hPa NW 7.7 km/h 33.6 km/h 64 % 0 mm
17:27 -13.6 °C -17.1 °C 34520.3 hPa NW 5.1 km/h 33.6 km/h 64 % 0 mm
17:32 -13.6 °C -17.1 °C 34520.3 hPa NW 20.8 km/h 33.6 km/h 65 % 0 mm
17:37 -13.7 °C -16.9 °C 34520.3 hPa WNW 18.2 km/h 28.5 km/h 66 % 0 mm
17:42 -13.6 °C -16.8 °C 34520.3 hPa WNW 5.1 km/h 28.5 km/h 66 % 0 mm
17:52 -13.6 °C -16.9 °C 34533.8 hPa WNW 5.1 km/h 25.9 km/h 66 % 0 mm
17:57 -13.7 °C -17.1 °C 34533.8 hPa NNW 7.7 km/h 28.5 km/h 65 % 0 mm
18:02 -13.7 °C -16.8 °C 34533.8 hPa WNW 7.7 km/h 28.5 km/h 67 % 0 mm
18:12 -13.7 °C -16.9 °C 34533.8 hPa NNW 7.7 km/h 28.5 km/h 67 % 0 mm
18:17 -13.8 °C -16.8 °C 34544 hPa NNW 5.1 km/h 20.8 km/h 68 % 0 mm
18:22 -13.8 °C -17 °C 34544 hPa NW 7.7 km/h 20.8 km/h 67 % 0 mm
18:32 -13.9 °C -16.9 °C 34544 hPa NW 10.3 km/h 23.3 km/h 69 % 0 mm
18:42 -14 °C -16.8 °C 34554.1 hPa NNW 15.6 km/h 18.2 km/h 70 % 0 mm
18:47 -14.1 °C -16.9 °C 34554.1 hPa NW 10.3 km/h 18.2 km/h 70 % 0 mm
18:52 -14.1 °C -16.8 °C 34567.7 hPa NW 7.7 km/h 25.9 km/h 71 % 0 mm
18:57 -14.2 °C -16.8 °C 34567.7 hPa NNE 10.3 km/h 20.8 km/h 72 % 0 mm
19:02 -14.3 °C -16.8 °C 34567.7 hPa North 10.3 km/h 20.8 km/h 73 % 0 mm
19:12 -14.5 °C -16.9 °C 34577.8 hPa North 10.3 km/h 12.9 km/h 74 % 0 mm
19:17 -14.6 °C -16.9 °C 34577.8 hPa North 7.7 km/h 18.2 km/h 74 % 0 mm
19:22 -14.6 °C -17 °C 34591.4 hPa NNW 7.7 km/h 18.2 km/h 74 % 0 mm
19:32 -14.8 °C -17.2 °C 34591.4 hPa NNW 5.1 km/h 12.9 km/h 74 % 0 mm
19:37 -14.8 °C -17.2 °C 34591.4 hPa NNW 2.6 km/h 10.3 km/h 74 % 0 mm
19:42 -14.9 °C -17.3 °C 34591.4 hPa NNW 2.6 km/h 10.3 km/h 74 % 0 mm
19:47 -14.9 °C -17.3 °C 34591.4 hPa NNW 5.1 km/h 10.3 km/h 74 % 0 mm
19:52 -15 °C -17.3 °C 34601.5 hPa North 5.1 km/h 10.3 km/h 74 % 0 mm
19:57 -15.1 °C -17.3 °C 34601.5 hPa NNW 2.6 km/h 10.3 km/h 75 % 0 mm
20:02 -15.1 °C -17.3 °C 34601.5 hPa Calm   10.3 km/h 76 % 0 mm
20:12 -15.2 °C -17.3 °C 34601.5 hPa WNW 2.6 km/h 7.7 km/h 76 % 0 mm
20:22 -15.2 °C -17.3 °C 34601.5 hPa WNW 5.1 km/h 5.1 km/h 76 % 0 mm
20:27 -15.2 °C -17.3 °C 34601.5 hPa WNW 2.6 km/h 7.7 km/h 76 % 0 mm
20:32 -15.2 °C -17.4 °C 34601.5 hPa NW 2.6 km/h 7.7 km/h 76 % 0 mm
20:37 -15.2 °C -17.4 °C 34611.7 hPa Calm   5.1 km/h 76 % 0 mm
20:42 -15.3 °C -17.4 °C 34611.7 hPa Calm   5.1 km/h 76 % 0 mm
20:47 -15.3 °C -17.5 °C 34611.7 hPa Calm   2.6 km/h 76 % 0 mm
20:52 -15.3 °C -17.5 °C 34611.7 hPa Calm   2.6 km/h 76 % 0 mm
20:57 -15.3 °C -17.5 °C 34611.7 hPa NNW 2.6 km/h 5.1 km/h 76 % 0 mm
21:02 -15.4 °C -17.4 °C 34625.2 hPa NNW 2.6 km/h 5.1 km/h 77 % 0 mm
21:07 -15.5 °C -17.4 °C 34625.2 hPa NNW 2.6 km/h 7.7 km/h 78 % 0 mm
21:12 -15.6 °C -17.6 °C 34625.2 hPa NNW 5.1 km/h 7.7 km/h 78 % 0 mm
21:17 -15.6 °C -17.4 °C 34625.2 hPa NNW 2.6 km/h 7.7 km/h 79 % 0 mm
21:22 -15.7 °C -17.5 °C 34625.2 hPa Calm   7.7 km/h 79 % 0 mm
21:32 -15.7 °C -17.4 °C 34625.2 hPa WNW 2.6 km/h 7.7 km/h 80 % 0 mm
21:42 -15.9 °C -17.6 °C 34635.4 hPa Calm   5.1 km/h 80 % 0 mm
21:52 -16 °C -17.6 °C 34635.4 hPa NNW 5.1 km/h 5.1 km/h 81 % 0 mm
21:57 -15.9 °C -17.6 °C 34635.4 hPa Calm   5.1 km/h 81 % 0 mm
22:02 -15.9 °C -17.7 °C 34635.4 hPa Calm   5.1 km/h 80 % 0 mm
22:12 -16 °C -17.6 °C 34635.4 hPa NNW 2.6 km/h 7.7 km/h 81 % 0 mm
22:17 -16.1 °C -17.7 °C 34635.4 hPa NNW 2.6 km/h 7.7 km/h 81 % 0 mm
22:22 -16.2 °C -17.8 °C 34635.4 hPa NW 2.6 km/h 7.7 km/h 81 % 0 mm
22:32 -16.1 °C -17.7 °C 34645.6 hPa Calm   5.1 km/h 81 % 0 mm
22:37 -16 °C -17.6 °C 34645.6 hPa NNW 7.7 km/h 7.7 km/h 81 % 0 mm
22:42 -16 °C -17.7 °C 34645.6 hPa NNW 5.1 km/h 7.7 km/h 80 % 0 mm
22:47 -16 °C -17.7 °C 34645.6 hPa NW 5.1 km/h 7.7 km/h 80 % 0 mm
22:52 -16 °C -17.7 °C 34645.6 hPa NNW 2.6 km/h 7.7 km/h 80 % 0 mm
22:57 -16.1 °C -17.7 °C 34645.6 hPa North 2.6 km/h 10.3 km/h 81 % 0 mm
23:02 -16.2 °C -17.8 °C 34645.6 hPa NNW 5.1 km/h 10.3 km/h 81 % 0 mm
23:07 -16.2 °C -17.7 °C 34645.6 hPa NNW 2.6 km/h 10.3 km/h 82 % 0 mm
23:12 -16.2 °C -17.8 °C 34645.6 hPa North 2.6 km/h 10.3 km/h 82 % 0 mm
23:17 -16.2 °C -17.8 °C 34645.6 hPa NNW 5.1 km/h 7.7 km/h 82 % 0 mm
23:22 -16.2 °C -17.8 °C 34645.6 hPa NW 5.1 km/h 7.7 km/h 82 % 0 mm
23:32 -16.3 °C -17.8 °C 34645.6 hPa Calm   10.3 km/h 82 % 0 mm
23:37 -16.3 °C -17.8 °C 34659.1 hPa NW 7.7 km/h 7.7 km/h 82 % 0 mm
23:42 -16.3 °C -17.8 °C 34645.6 hPa Calm   7.7 km/h 82 % 0 mm
23:52 -16.4 °C -17.8 °C 34645.6 hPa NW 2.6 km/h 7.7 km/h 83 % 0 mm
Meteo18
Compliments of Weather Underground - 4 mb

Script developed by  Jim McMurry - jmcmurry@mwt.net Adapted for the template by  Wim van der Kuil - Leuven-Template.eu

You find our weather info also at:

European Weather Network

Weather Underground

Equipment we use:

Weather-station
Davis Vue

Weather-program
Meteobridge

Weather-server
Raspberry PI 2 B+

Provider
1 and 1

Davis Vue

Meteobridge

Raspberry PI 2 B+

1 and 1